C/2007 W1 ( Boattini )

Japanese version
Home page
Total 6,336 html files since Dec. 4, 1995
Updated on July 17, 2008

---------------------------------------------------------------------

* Profile

Discovery Date November 20, 2007
Magnitude 18.1 mag
Discoverer A. Boattini (Mt. Lemmon Survey)

* Pictures

* Orbital Elements

Epoch 2008 June 23.0 TT = JDT 2454640.5
T 2008 June 24.88234 TT                                 MPC
q   0.8495906            (2000.0)            P               Q
z  -0.0002036      Peri.  306.55717     +0.19732512     +0.97755073
 +/-0.0000125      Node   334.52352     -0.83561676     +0.12831130
e   1.0001730      Incl.    9.88923     -0.51264747     +0.16712507

* Finding Charts

* Magnitudes Graph

        m1 = 8.5 + 5 log d + 12.0 log r

---------------------------------------------------------------------

The orbital elements are published on M.P.E.C. 2008-E10.
The charts are made with StellaNavigator Ver.8 (AstroArts).
The magnitudes graphs are made with Comet for Windows.

---------------------------------------------------------------------

Copyright(C) 1995-2008 Seiichi Yoshida (comet@aerith.net). All rights reserved.